Regional Weather Roundup
Issued by NWS

Home | Current Version | Previous Version | Graphics & Text | Print | Product List | Glossary On
Versions: 1 2 3 4 5 6 7 8 9 10 11 12 13 14 15 16 17 18 19 20 21 22 23 24 25 26 27 28 29 30 31 32 33 34 35 36 37 38 39 40 41 42 43 44 45 46 47 48 49 50
000
ASUS43 KMKX 190220
RWRWI

WISCONSIN REGIONAL WEATHER ROUNDUP
NATIONAL WEATHER SERVICE MILWAUKEE/SULLIVAN WI
800 PM CST SAT NOV 18 2017

NOTE: "FAIR" INDICATES FEW OR NO CLOUDS BELOW 12,000 FEET WITH NO
SIGNIFICANT WEATHER AND/OR OBSTRUCTIONS TO VISIBILITY.

WIZ001-002-006>008-014>016-023>028-190300-
NORTHWEST WISCONSIN

CITY           SKY/WX    TMP DP  RH WIND       PRES   REMARKS
SUPERIOR ARPT  CLOUDY    22  12  64 W15G21    29.96R WCI   9
ASHLAND        CLOUDY    25  15  66 NW10      29.90R WCI  15
HAYWARD        CLOUDY    25  14  63 VRB6      29.90R WCI  18
SIREN          MOCLDY    22  12  65 NW12G17   29.96R WCI  11
CUMBERLAND     CLOUDY    25  14  63 NW14      29.92R WCI  13
RICE LAKE      CLOUDY    26  16  65 NW10G18   29.93R WCI  16
CHETEK         CLOUDY    26  16  66 NW9G18    29.91R WCI  17
LADYSMITH      CLOUDY    27  17  66 NW15G24   29.88S WCI  16
EAU CLAIRE     MOCLDY    28  15  58 NW17G28   29.90R WCI  16
MENOMONIE      MOCLDY    27  16  63 NW15G22   29.93R WCI  16
NEW RICHMOND   CLOUDY    25  14  62 NW18G24   29.96R WCI  12
OSCEOLA        CLOUDY    26  15  64 W13       30.00R WCI  15
$$

WIZ003>005-009-010-017-018-190300-
NORTH CENTRAL WISCONSIN

CITY           SKY/WX    TMP DP  RH WIND       PRES   REMARKS
MANITOWISH WTR FLURRIES  23  23  98 NW9       29.79R WCI  13
ARBOR VITAE    CLOUDY    26  22  87 NW14G21   29.78R WCI  14
WOODRUFF       CLOUDY    26  22  87 NW14G21   29.78R WCI  14
RHINELANDER    CLOUDY    26  23  88 NW12G20   29.76R WCI  16
EAGLE RIVER    CLOUDY    25  22  89 NW13G21   29.76R WCI  14
LAND O LAKES   CLOUDY    26  22  88 NW13G23   29.76S WCI  14
PHILLIPS       CLOUDY    24  17  77 NW15      29.82S WCI  11
TOMAHAWK       CLOUDY    26  20  79 NW14G22   29.79S WCI  14
MEDFORD        CLOUDY    27  19  72 NW14G22   29.80R WCI  15
MERRILL        CLOUDY    28  21  76 NW17G29   29.80R WCI  15
$$

WIZ029-030-035-036-043>047-190300-
CENTRAL WISCONSIN

CITY           SKY/WX    TMP DP  RH WIND       PRES   REMARKS
WAUSAU         CLOUDY    29  22  75 NW10G25   29.77R WCI  20
MOSINEE        CLOUDY    30  25  80 NW13G22   29.78R WCI  20
MARSHFIELD     CLOUDY    30  20  66 NW21G30   29.80R WCI  17
STEVENS POINT  CLOUDY    31  24  74 NW15G23   29.78R WCI  20
WAUPACA        CLOUDY    35  25  65 NW15G22   29.77R WCI  26
WAUTOMA        CLOUDY    34  23  64 NW13G21   29.79R WCI  25
WISC RAPIDS    CLOUDY    33  22  63 N18G29    29.81R WCI  22
CAMP DOUGLAS   CLOUDY   N/A N/A N/A NW21G28   29.85R
$$

WIZ011>013-019>022-031-037>040-048>050-190300-
NORTHEAST WISCONSIN

CITY           SKY/WX    TMP DP  RH WIND       PRES   REMARKS
ANTIGO         CLOUDY    28  24  86 NW16      29.74R WCI  16
SHAWANO        CLOUDY    35  26  71 NW9       29.75R WCI  27
OCONTO         CLOUDY    34  27  74 NW10G16   29.72R WCI  26
STURGEON BAY   CLOUDY    34  27  75 NW15      29.70R WCI  24
GREEN BAY      CLOUDY    35  28  75 NW17      29.73R WCI  25
MANITOWOC      CLOUDY    36  27  69 N16G23    29.71R WCI  26
APPLETON       CLOUDY    34  25  69 NW14G25   29.72R WCI  24
CLINTONVILLE   CLOUDY    34  25  69 NW13G18   29.76R WCI  25
OSHKOSH        CLOUDY    35  26  69 NW20G29   29.73R WCI  24
$$

WIZ032>034-041-042-053>061-190300-
SOUTHWEST WISCONSIN

CITY           SKY/WX    TMP DP  RH WIND       PRES   REMARKS
LA CROSSE      CLEAR     32  21  64 NW15      29.90R WCI  22
SPARTA         CLOUDY    32  22  65 NW12G23   29.88R WCI  23
VIROQUA        MOCLDY    30  23  73 NW16G24   29.86R WCI  19
BOSCOBEL       CLOUDY    37  25  61 NW10G17   29.86R WCI  30
PRAIRIE DU CHI CLOUDY    34  21  58 NW21G26   29.89R WCI  22
PLATTEVILLE    CLOUDY    35  28  78 W16G26    29.84R WCI  25
$$

WIZ056-057-062-063-064-067-068-190300-
SOUTH CENTRAL WISCONSIN

CITY           SKY/WX    TMP DP  RH WIND       PRES   REMARKS
REEDSBURG      CLOUDY    33  24  69 NW9G21    29.81R WCI  25
BARABOO/DELLS  CLOUDY    33  22  65 NW17G28   29.80R WCI  22
LONE ROCK      CLOUDY    36  25  64 NW17G30   29.84R WCI  26
MINERAL POINT  CLOUDY    36  30  80 NW12G21   29.81R WCI  27
MADISON        MOCLDY    36  25  64 NW25G32   29.78R WCI  24
MIDDLETON      CLOUDY    37  29  71 NW15G25   29.79R WCI  28
WATERTOWN      CLOUDY    35  30  82 NW10G18   29.74R WCI  27
MONROE         CLOUDY    36  30  80 NW14G21   29.78R WCI  27
JANESVILLE     CLOUDY    36  34  93 NW9       29.76R WCI  29
$$

WIZ051-052-058>065-066-070>072-190300-
SOUTHEAST WISCONSIN

CITY           SKY/WX    TMP DP  RH WIND       PRES   REMARKS
MILWAUKEE      CLOUDY    39  28  64 NW14      29.72R WCI  31
WAUKESHA       CLOUDY    36  27  69 NW13G23   29.73R WCI  27
MILWAUKEE/TIMM CLOUDY    37  25  60 NW13      29.73R WCI  29
RACINE         CLOUDY    38  28  67 NW13G28   29.73R WCI  30
BURLINGTON     CLOUDY    38  34  84 NW12G18   29.74R WCI  31
KENOSHA        CLOUDY    38  29  70 NW10      29.72R WCI  31
FOND DU LAC    CLOUDY    36  27  69 NW9G26    29.74R WCI  29
SHEBOYGAN      CLOUDY    36  29  75 NW10      29.70R WCI  28
WEST BEND      CLOUDY    36  30  80 NW13      29.72R WCI  27
JUNEAU         CLOUDY    34  28  77 NW6       29.75R WCI  29
$$

LSZ147-162-190300-
LAKE SUPERIOR

STATION/POSITION TIME  TEMP    WIND        PRES    WAVE
                       AIR SEA DIR/SP/G            HT/PER
                 (UTC) (F)     (DEG/KT/KT) (MB)    (FT/S)
DEVILS ISLAND    0200   26     310/ 17/ 22 1013.1R
SAXON HARBOR     0130   29     300/ 16/ 24 1011.5R
$$

LMZ867-665-643>646-190300-
LAKE MICHIGAN

STATION/POSITION TIME  TEMP    WIND        PRES    WAVE
                       AIR SEA DIR/SP/G            HT/PER
                 (UTC) (F)     (DEG/KT/KT) (MB)    (FT/S)
N MID LAKE BUOY  0150   36 48  320/ 27/ 33 1004.3R   6/ 5
NORTHPORT PIER   0140   36     330/ 23/ 31 1005.1R
SHEBOYGAN LAKESH 0200   37     330/ 17/ 21 1006.3R
PORT WASHINGTON  0140   38     340/  6/ 15 1007.1R
MILWAUKEE LAKESH 0150   38     330/  8/ 11   N/A
S MID LAKE BUOY  0150   41 49  350/ 27/ 35 1004.0R  11/ 8
KENOSHA   LAKESH 0200   38     330/ 16/ 21 1006.8
$$

TC  - TEMPERATURE IN CELSIUS
VSB - VISIBILITY IN STATUTE MILES
WCI - WIND CHILL INDEX
HX  - HEAT INDEX




USA.gov is the U.S. government's official web portal to all federal, state and local government web resources and services.